Weather History for Del Rio Laughlin AFB, TX

Change the Weather History Date:

Thursday, May 30, 2013

  Actual Average Record
Temperature  
Mean Temperature 81 °F -  
Max Temperature 89 °F 95 °F 105 °F (1998)
Min Temperature 73 °F 72 °F 69 °F (2002)
Cooling Degree Days 16    
Growing Degree Days 31 (Base 50)    
Moisture  
Dew Point 71 °F    
Average Humidity 79    
Maximum Humidity 100    
Minimum Humidity 49    
Precipitation  
Precipitation 0.00 in - - ()
Sea Level Pressure  
Sea Level Pressure 29.75 in    
Wind  
Wind Speed 14 mph (SE)    
Max Wind Speed 20 mph    
Max Gust Speed 26 mph    
Visibility 8 miles    
Events      
Averages and records for this station are not official NWS values.
T = Trace of Precipitation, MM = Missing Value Source: NWS Daily Summary

Daily Weather History Graph

Daily Weather History Graph

Search for Another Location

Airport:

Trip Planner

Search our weather history database for the weather conditions in past years. The results will help you decide how hot, cold, wet, or windy it might be!

Date:

Astronomy

May. 30, 2013 Rise Set
Actual Time 6:44 AM CDT 8:37 PM CDT
Civil Twilight 6:17 AM CDT 9:04 PM CDT
Nautical Twilight 5:45 AM CDT 9:36 PM CDT
Astronomical Twilight 5:11 AM CDT 10:10 PM CDT
Moon 12:55 AM CDT (5/30) 12:36 PM CDT (5/30)
Length of Visible Light 14h 46m
Length of Day
13h 52m
Waning Gibbous, 62% of the Moon is Illuminated
May 30
Waning Gibbous
May 31
Last Quarter
Jun 8
New
Jun 16
First Quarter
Jun 23
Full

Hourly Weather History & Observations

Time (CDT) Temp. Heat Index Dew Point Humidity Pressure Visibility Wind Dir Wind Speed Gust Speed Precip Events Conditions
12:58 AM 81.1 °F 84.5 °F 69.8 °F 68% 29.68 in 10.0 mi ESE 16.1 mph - N/A   Overcast
1:58 AM 79.3 °F - 71.8 °F 78% 29.67 in 10.0 mi SE 19.6 mph - N/A   Overcast
2:13 AM 78.8 °F - 71.6 °F 78% 29.72 in 10.0 mi SE 18.4 mph 26.5 mph N/A   Overcast
2:58 AM 78.1 °F - 70.9 °F 78% 29.68 in 10.0 mi SE 15.0 mph - N/A   Overcast
3:58 AM 77.5 °F - 70.9 °F 80% 29.69 in 10.0 mi SE 17.3 mph - N/A   Overcast
4:48 AM 75.2 °F - 71.6 °F 89% 29.74 in 10.0 mi SSE 16.1 mph - N/A   Overcast
4:53 AM 75.2 °F - 71.6 °F 89% 29.74 in 10.0 mi SE 15.0 mph - N/A   Overcast
4:58 AM 75.2 °F - 71.6 °F 89% 29.70 in 8.0 mi SE 15.0 mph - N/A   Overcast
5:08 AM 75.2 °F - 71.6 °F 89% 29.75 in 5.0 mi SE 13.8 mph - N/A   Overcast
5:13 AM 73.4 °F - 71.6 °F 94% 29.74 in 2.5 mi SE 11.5 mph - N/A   Overcast
5:18 AM 73.4 °F - 71.6 °F 94% 29.75 in 3.0 mi SE 9.2 mph - N/A   Overcast
5:28 AM 73.4 °F - 71.6 °F 94% 29.75 in 5.0 mi SE 9.2 mph - N/A   Overcast
5:38 AM 73.4 °F - 71.6 °F 94% 29.75 in 6.0 mi SE 12.7 mph - N/A   Overcast
5:43 AM 73.4 °F - 71.6 °F 94% 29.75 in 7.0 mi SE 12.7 mph - N/A   Overcast
5:58 AM 73.8 °F - 72.3 °F 95% 29.71 in 7.0 mi SE 11.5 mph - N/A   Overcast
6:38 AM 73.4 °F - 73.4 °F 100% 29.77 in 4.0 mi SE 9.2 mph - N/A   Overcast
6:58 AM 73.4 °F - 73.0 °F 99% 29.74 in 4.0 mi SE 8.1 mph - N/A   Overcast
7:13 AM 73.4 °F - 73.4 °F 100% 29.79 in 2.5 mi SE 9.2 mph - N/A   Overcast
7:18 AM 73.4 °F - 73.4 °F 100% 29.79 in 3.0 mi SE 9.2 mph - N/A   Overcast
7:58 AM 73.4 °F - 73.2 °F 99% 29.76 in 4.0 mi SE 10.4 mph - N/A   Overcast
8:08 AM 73.4 °F - 73.4 °F 100% 29.80 in 4.0 mi SE 9.2 mph - N/A   Overcast
8:53 AM 73.4 °F - 73.4 °F 100% 29.81 in 9.0 mi SE 11.5 mph - N/A   Overcast
8:58 AM 74.1 °F - 73.6 °F 98% 29.77 in 10.0 mi SE 11.5 mph - N/A   Overcast
9:38 AM 75.2 °F - 73.4 °F 94% 29.82 in 10.0 mi SE 11.5 mph - N/A   Overcast
9:58 AM 76.5 °F - 73.0 °F 89% 29.78 in 10.0 mi SE 10.4 mph - N/A   Overcast
10:18 AM 77.0 °F - 73.4 °F 89% 29.81 in 10.0 mi SSE 10.4 mph - N/A   Overcast
10:58 AM 78.4 °F - 72.1 °F 81% 29.77 in 10.0 mi SE 13.8 mph - N/A   Overcast
11:28 AM 78.8 °F - 71.6 °F 78% 29.81 in 10.0 mi SSE 13.8 mph - N/A   Overcast
11:58 AM 80.6 °F 84.7 °F 72.0 °F 75% 29.78 in 10.0 mi SSE 11.5 mph - N/A   Overcast
12:27 PM 82.4 °F 87.2 °F 71.6 °F 70% 29.81 in 10.0 mi SSE 10.4 mph - N/A   Overcast
12:38 PM 82.4 °F 87.2 °F 71.6 °F 70% 29.81 in 10.0 mi SSE 11.5 mph - N/A   Mostly Cloudy
12:58 PM 83.8 °F 89.8 °F 72.9 °F 69% 29.78 in 10.0 mi ESE 10.4 mph - N/A   Mostly Cloudy
1:03 PM 82.4 °F 87.2 °F 71.6 °F 70% 29.82 in 10.0 mi SE 12.7 mph - N/A   Mostly Cloudy
1:38 PM 84.2 °F 89.6 °F 71.6 °F 66% 29.81 in 10.0 mi SE 15.0 mph - N/A   Mostly Cloudy
1:58 PM 84.9 °F 90.4 °F 71.6 °F 64% 29.77 in 10.0 mi SE 9.2 mph - N/A   Overcast
2:50 PM 87.8 °F 93.8 °F 71.6 °F 58% 29.79 in 10.0 mi ESE 12.7 mph 17.3 mph N/A   Scattered Clouds
2:58 PM 88.0 °F 94.2 °F 71.4 °F 58% 29.75 in 10.0 mi SSE 15.0 mph - N/A   Mostly Cloudy
3:34 PM 89.6 °F 94.7 °F 69.8 °F 52% 29.78 in 10.0 mi ESE 13.8 mph - N/A   Scattered Clouds
3:58 PM 89.2 °F 94.1 °F 69.6 °F 52% 29.73 in 10.0 mi SE 13.8 mph - N/A   Partly Cloudy
4:58 PM 89.6 °F 94.7 °F 69.8 °F 52% 29.72 in 10.0 mi SE 9.2 mph - N/A   Clear
5:58 PM 89.8 °F 94.6 °F 69.4 °F 51% 29.70 in 10.0 mi SSE 16.1 mph - N/A   Clear
6:58 PM 89.4 °F 93.1 °F 68.2 °F 49% 29.70 in 10.0 mi SE 16.1 mph - N/A   Clear
7:58 PM 88.2 °F 92.5 °F 68.9 °F 53% 29.70 in 10.0 mi SSE 18.4 mph - N/A   Clear
8:58 PM 86.0 °F 89.4 °F 68.4 °F 55% 29.71 in 10.0 mi SSE 10.4 mph - N/A   Clear
9:58 PM 83.8 °F 87.5 °F 68.9 °F 61% 29.73 in 10.0 mi South 8.1 mph - N/A   Clear
10:58 PM 81.5 °F 84.9 °F 69.4 °F 67% 29.75 in 10.0 mi South 5.8 mph - N/A   Clear
11:58 PM 79.0 °F - 69.4 °F 72% 29.76 in 10.0 mi SE 6.9 mph - N/A   Clear